When you browse on this site, cookies collect data to enhance your experience and personalize the content and advertising you see.
Visit our Privacy Policy to learn more. By continuing to use the site, you agree to this use of cookies and data.
  • en France
  • Liste des pays
  • À 7 jours
  • Température de l'eau
  • Carte météo
  • Widgets météo
  • user-avatar
    Se connecter

    Météo par heure à Bilacari

    Ce jour, 22 Septembre, Dimanche

    Heure Température Précipitation Vent Pression Humidité
    00:00 +15°C° 0.2 mm 14 m/s 756 mmHg 67%
    01:00 +14°C° 0.2 mm 14 m/s 756 mmHg 69%
    02:00 +14°C° 0.2 mm 13 m/s 757 mmHg 68%
    03:00 +14°C° 0 mm 12 m/s 757 mmHg 66%
    04:00 +14°C° 0.2 mm 12 m/s 758 mmHg 63%
    05:00 +14°C° 0.2 mm 11 m/s 759 mmHg 60%
    06:00 +14°C° 0.2 mm 11 m/s 760 mmHg 58%
    07:00 +14°C° 0.1 mm 10 m/s 760 mmHg 59%
    08:00 +15°C° 0.1 mm 9 m/s 761 mmHg 61%
    09:00 +15°C° 0.1 mm 8 m/s 761 mmHg 62%
    10:00 +15°C° 0 mm 7 m/s 761 mmHg 60%
    11:00 +16°C° 0 mm 6 m/s 761 mmHg 58%
    12:00 +16°C° 0 mm 5 m/s 762 mmHg 56%
    13:00 +18°C° 0 mm 4 m/s 761 mmHg 55%
    14:00 +18°C° 0 mm 4 m/s 761 mmHg 53%
    15:00 +18°C° 0 mm 4 m/s 761 mmHg 51%
    16:00 +18°C° 0 mm 3 m/s 761 mmHg 52%
    17:00 +18°C° 0 mm 3 m/s 761 mmHg 53%
    18:00 +18°C° 0 mm 3 m/s 761 mmHg 54%
    19:00 +18°C° 0 mm 3 m/s 761 mmHg 57%
    20:00 +18°C° 0 mm 4 m/s 761 mmHg 60%
    21:00 +18°C° 0 mm 4 m/s 761 mmHg 63%
    22:00 +18°C° 0 mm 4 m/s 760 mmHg 64%
    23:00 +18°C° 0 mm 4 m/s 760 mmHg 64%

    Demain, 23 Septembre, Lundi

    Heure Température Précipitation Vent Pression Humidité
    00:00 +19°C° 0 mm 5 m/s 760 mmHg 65%
    01:00 +18°C° 0 mm 4 m/s 759 mmHg 66%
    02:00 +18°C° 0 mm 4 m/s 759 mmHg 68%
    03:00 +18°C° 0 mm 4 m/s 759 mmHg 69%
    04:00 +18°C° 0 mm 4 m/s 759 mmHg 69%
    05:00 +18°C° 0 mm 3 m/s 759 mmHg 69%
    06:00 +18°C° 0 mm 3 m/s 759 mmHg 70%
    07:00 +18°C° 0.3 mm 3 m/s 759 mmHg 72%
    08:00 +19°C° 0.3 mm 3 m/s 758 mmHg 74%
    09:00 +19°C° 0.3 mm 3 m/s 758 mmHg 76%
    10:00 +19°C° 0.7 mm 3 m/s 758 mmHg 77%
    11:00 +19°C° 0.7 mm 3 m/s 758 mmHg 77%
    12:00 +19°C° 0.7 mm 3 m/s 757 mmHg 78%
    13:00 +20°C° 0.2 mm 3 m/s 757 mmHg 76%
    14:00 +20°C° 0.2 mm 3 m/s 756 mmHg 74%
    15:00 +21°C° 0.2 mm 4 m/s 756 mmHg 72%
    16:00 +21°C° 0 mm 3 m/s 756 mmHg 72%
    17:00 +21°C° 0 mm 3 m/s 756 mmHg 73%
    18:00 +21°C° 0 mm 2 m/s 756 mmHg 73%
    19:00 +21°C° 0.1 mm 2 m/s 757 mmHg 73%
    20:00 +22°C° 0.1 mm 1 m/s 757 mmHg 73%
    21:00 +22°C° 0.1 mm 1 m/s 757 mmHg 74%
    22:00 +20°C° 0.2 mm 2 m/s 757 mmHg 74%
    23:00 +20°C° 0.2 mm 4 m/s 757 mmHg 74%

    Après-demain, 24 Septembre, Mardi

    Heure Température Précipitation Vent Pression Humidité
    00:00 +20°C° 0.2 mm 5 m/s 757 mmHg 74%
    01:00 +20°C° 0 mm 5 m/s 757 mmHg 73%
    02:00 +20°C° 0 mm 5 m/s 757 mmHg 71%
    03:00 +19°C° 0 mm 5 m/s 757 mmHg 70%
    04:00 +19°C° 0 mm 4 m/s 757 mmHg 70%
    05:00 +19°C° 0 mm 4 m/s 757 mmHg 70%
    06:00 +19°C° 0 mm 3 m/s 757 mmHg 70%
    07:00 +20°C° 0 mm 3 m/s 757 mmHg 66%
    08:00 +21°C° 0 mm 2 m/s 758 mmHg 62%
    09:00 +21°C° 0 mm 2 m/s 758 mmHg 58%
    10:00 +23°C° 0 mm 2 m/s 757 mmHg 56%
    11:00 +23°C° 0 mm 2 m/s 757 mmHg 54%
    12:00 +24°C° 0 mm 1 m/s 757 mmHg 52%
    13:00 +24°C° 0 mm 2 m/s 757 mmHg 52%
    14:00 +24°C° 0 mm 2 m/s 756 mmHg 53%
    15:00 +25°C° 0 mm 2 m/s 756 mmHg 53%
    16:00 +24°C° 0 mm 2 m/s 756 mmHg 56%
    17:00 +24°C° 0 mm 2 m/s 756 mmHg 59%
    18:00 +23°C° 0 mm 2 m/s 756 mmHg 62%
    19:00 +23°C° 0 mm 2 m/s 756 mmHg 63%
    20:00 +23°C° 0 mm 1 m/s 756 mmHg 65%
    21:00 +21°C° 0 mm 0 m/s 757 mmHg 66%
    22:00 +22°C° 0 mm 1 m/s 756 mmHg 67%
    23:00 +22°C° 0 mm 1 m/s 756 mmHg 68%

    25 Septembre, Mercredi

    Heure Température Précipitation Vent Pression Humidité
    00:00 +22°C° 0 mm 1 m/s 756 mmHg 70%
    01:00 +22°C° 0 mm 1 m/s 755 mmHg 71%
    02:00 +21°C° 0 mm 1 m/s 755 mmHg 72%
    03:00 +21°C° 0 mm 1 m/s 755 mmHg 73%
    04:00 +20°C° 0 mm 2 m/s 755 mmHg 74%
    05:00 +20°C° 0 mm 3 m/s 754 mmHg 75%
    06:00 +20°C° 0 mm 3 m/s 754 mmHg 75%
    07:00 +21°C° 0 mm 4 m/s 754 mmHg 71%
    08:00 +22°C° 0 mm 5 m/s 755 mmHg 66%
    09:00 +23°C° 0 mm 6 m/s 755 mmHg 62%
    10:00 +25°C° 0 mm 5 m/s 755 mmHg 58%
    11:00 +26°C° 0 mm 5 m/s 754 mmHg 55%
    12:00 +27°C° 0 mm 5 m/s 754 mmHg 51%
    13:00 +26°C° 0 mm 5 m/s 754 mmHg 55%
    14:00 +25°C° 0 mm 5 m/s 754 mmHg 59%
    15:00 +23°C° 0 mm 4 m/s 754 mmHg 63%
    16:00 +23°C° 0 mm 5 m/s 754 mmHg 67%
    17:00 +22°C° 0 mm 6 m/s 754 mmHg 70%
    18:00 +22°C° 0 mm 7 m/s 754 mmHg 73%
    19:00 +22°C° 0 mm 6 m/s 755 mmHg 73%
    20:00 +21°C° 0 mm 6 m/s 755 mmHg 74%
    21:00 +21°C° 0 mm 6 m/s 755 mmHg 74%
    22:00 +21°C° 0 mm 6 m/s 755 mmHg 74%
    23:00 +21°C° 0 mm 5 m/s 755 mmHg 73%

    26 Septembre, Jeudi

    Heure Température Précipitation Vent Pression Humidité
    00:00 +20°C° 0 mm 5 m/s 755 mmHg 72%
    01:00 +20°C° 0 mm 5 m/s 755 mmHg 71%
    02:00 +20°C° 0 mm 4 m/s 755 mmHg 71%
    03:00 +20°C° 0 mm 4 m/s 755 mmHg 70%
    04:00 +20°C° 0 mm 4 m/s 755 mmHg 72%
    05:00 +20°C° 0 mm 4 m/s 755 mmHg 74%
    06:00 +20°C° 0 mm 4 m/s 755 mmHg 76%
    07:00 +20°C° 0 mm 3 m/s 755 mmHg 70%
    08:00 +21°C° 0 mm 3 m/s 755 mmHg 65%
    09:00 +23°C° 0 mm 2 m/s 756 mmHg 60%
    10:00 +24°C° 0 mm 2 m/s 755 mmHg 56%
    11:00 +24°C° 0 mm 2 m/s 755 mmHg 53%
    12:00 +25°C° 0 mm 2 m/s 755 mmHg 50%
    13:00 +25°C° 0 mm 2 m/s 755 mmHg 51%
    14:00 +25°C° 0 mm 2 m/s 755 mmHg 51%
    15:00 +25°C° 0 mm 2 m/s 754 mmHg 52%
    16:00 +25°C° 0 mm 2 m/s 754 mmHg 56%
    17:00 +24°C° 0 mm 2 m/s 754 mmHg 60%
    18:00 +24°C° 0 mm 3 m/s 754 mmHg 64%
    19:00 +22°C° 0 mm 3 m/s 755 mmHg 66%
    20:00 +22°C° 0 mm 3 m/s 755 mmHg 68%
    21:00 +22°C° 0 mm 4 m/s 755 mmHg 70%
    22:00 +21°C° 0 mm 4 m/s 755 mmHg 72%
    23:00 +21°C° 0 mm 4 m/s 755 mmHg 74%

    27 Septembre, Vendredi

    Heure Température Précipitation Vent Pression Humidité
    00:00 +21°C° 0 mm 4 m/s 754 mmHg 76%
    01:00 +20°C° 0 mm 4 m/s 754 mmHg 76%
    02:00 +20°C° 0 mm 4 m/s 754 mmHg 76%
    03:00 +20°C° 0 mm 3 m/s 754 mmHg 76%
    04:00 +20°C° 0 mm 3 m/s 754 mmHg 76%
    05:00 +20°C° 0 mm 2 m/s 754 mmHg 75%
    06:00 +19°C° 0 mm 2 m/s 754 mmHg 75%
    07:00 +20°C° 0 mm 2 m/s 753 mmHg 69%
    08:00 +21°C° 0 mm 2 m/s 753 mmHg 63%
    09:00 +23°C° 0 mm 2 m/s 753 mmHg 57%
    10:00 +25°C° 0 mm 3 m/s 753 mmHg 53%
    11:00 +26°C° 0 mm 5 m/s 752 mmHg 50%
    12:00 +27°C° 0 mm 6 m/s 752 mmHg 46%
    13:00 +27°C° 0 mm 6 m/s 751 mmHg 48%
    14:00 +27°C° 0 mm 5 m/s 750 mmHg 50%
    15:00 +28°C° 0 mm 5 m/s 750 mmHg 52%
    16:00 +26°C° 0 mm 5 m/s 750 mmHg 58%
    17:00 +25°C° 0 mm 4 m/s 750 mmHg 64%
    18:00 +23°C° 0 mm 4 m/s 750 mmHg 69%
    19:00 +22°C° 0 mm 4 m/s 750 mmHg 69%
    20:00 +22°C° 0 mm 5 m/s 750 mmHg 69%
    21:00 +22°C° 0 mm 5 m/s 750 mmHg 69%
    22:00 +22°C° 0 mm 4 m/s 750 mmHg 69%
    23:00 +22°C° 0 mm 4 m/s 750 mmHg 69%
    Voir plus